RH
90 92 94 95 97 98 99 101 102 102 103 103 104 105 105 104 104 103 101 99 97 95 92 90 89 87 86 85 83 81 80 80 78 76 75 73 73 72 72 72 72 72 71 70 70 68 68 67 67 67 64 62 60 57 54 51 48 46 45 44 43 41 39 37 33 30 31 33 32 29 27 26 24 23 23 23 22 22 21 20 19 18 19 18 18
100 102 103 103 104 105 106 106 107 107 107 106 105 104 103 101 99 96 94 91 88 86 84 83 83 81 81 80 79 77 76 76 76 75 74 73 73 74 74 74 73 72 71 68 66 63 61 61 60 59 55 51 49 47 46 45 44 43 42 41 40 37 36 34 31 30 31 33 32 31 31 30 28 26 23 22 21 21 21 20 19 19 20 21 22
102 105 106 105 106 107 106 105 103 102 99 96 93 90 88 86 84 83 81 80 79 79 79 79 79 78 77 76 75 74 72 71 70 70 69 67 66 64 63 63 62 60 57 55 53 50 49 48 47 45 42 40 38 38 38 38 38 38 38 37 36 34 34 33 31 30 30 31 31 33 35 36 33 30 26 23 22 21 21 21 21 21 21 23 25
100 99 98 95 92 91 88 86 84 82 80 78 77 76 75 74 74 73 72 72 72 72 71 70 69 68 66 64 61 59 57 55 54 53 52 51 50 49 47 45 44 42 39 38 37 37 37 37 36 35 34 33 32 33 34 34 33 33 33 32 32 32 32 32 31 31 30 30 30 32 35 37 38 36 32 28 26 23 23 23 22 22 22 23 26
84 81 77 74 72 70 69 68 67 66 66 66 65 64 63 62 59 58 56 55 53 52 51 49 48 48 46 45 44 43 43 42 42 42 42 42 42 42 41 39 38 37 36 34 34 34 34 33 33 32 32 32 32 33 33 33 32 31 31 31 31 32 32 32 32 31 31 30 30 32 34 35 38 40 38 35 32 28 26 25 24 23 23 23 26
68 65 62 59 58 56 54 53 51 50 50 49 47 46 44 42 40 39 38 38 38 38 38 38 38 39 39 40 41 41 42 42 43 45 46 47 47 47 46 46 45 45 43 41 39 38 37 36 35 34 34 34 35 35 34 34 33 32 32 32 32 32 32 32 32 32 31 31 31 33 35 36 39 42 42 41 40 36 31 28 28 26 24 24 25
51 49 47 45 43 42 41 40 40 40 40 39 39 38 37 37 37 37 39 39 40 41 41 42 42 43 44 45 47 48 50 51 52 53 54 55 55 55 54 53 52 51 49 47 45 43 42 40 38 36 36 37 36 35 35 34 33 33 33 33 33 33 33 33 34 34 33 33 33 33 34 36 39 43 45 45 46 45 40 34 31 29 26 25 25
39 40 40 40 40 40 41 41 42 42 42 42 42 41 41 41 41 42 43 43 43 44 44 44 45 46 47 47 49 50 52 54 54 55 55 55 55 54 54 52 51 49 46 44 43 42 41 39 38 37 37 37 36 35 34 33 33 33 33 33 33 33 33 33 33 34 33 33 32 32 33 35 37 40 44 46 48 52 52 45 38 32 29 27 26
41 41 41 42 42 42 43 43 43 43 43 43 43 43 42 42 42 43 43 44 44 44 44 44 45 46 47 48 50 50 51 52 53 55 55 55 55 54 53 52 49 46 43 41 40 38 37 36 35 35 34 33 33 32 31 31 32 32 33 34 34 35 35 34 34 34 33 32 32 31 31 32 34 36 39 43 45 51 57 58 51 41 34 30 28
40 41 41 41 41 42 42 42 42 42 42 42 42 42 42 42 43 44 44 45 45 45 46 46 47 48 49 51 52 53 54 55 56 57 57 57 58 58 57 56 53 51 48 46 44 42 41 40 38 37 36 35 35 35 35 35 35 35 35 34 34 34 34 33 33 33 33 33 32 32 31 30 31 32 33 36 39 43 50 58 61 55 46 39 32
39 39 40 40 40 41 41 41 41 40 40 41 41 42 42 42 43 43 44 44 44 45 45 45 46 47 49 50 51 52 53 54 55 56 57 57 58 58 56 55 54 52 50 49 48 47 46 45 44 43 42 41 41 40 40 40 40 39 39 39 37 37 36 34 33 33 32 32 32 31 31 31 30 30 31 32 33 36 39 46 56 60 58 52 44
40 40 41 41 41 41 41 41 41 41 42 43 43 44 44 44 45 45 45 46 46 46 46 47 47 48 49 49 50 51 52 54 55 55 55 55 54 53 52 52 51 51 51 51 51 51 50 50 50 49 48 47 46 44 43 41 40 39 39 39 39 39 39 38 38 37 36 35 34 33 32 31 30 30 30 30 30 32 34 37 43 51 56 59 58
39 39 40 40 40 40 41 41 42 43 44 44 45 45 46 46 47 48 48 48 49 49 49 50 50 51 52 52 53 53 54 54 53 53 52 51 51 51 51 51 52 52 52 52 52 52 52 52 52 52 51 50 49 48 46 44 42 41 40 39 39 38 38 38 38 38 38 37 37 37 37 35 34 33 31 30 29 29 31 32 35 40 45 51 58
38 38 38 39 40 41 42 43 44 45 45 46 47 47 48 49 50 51 51 52 53 54 54 55 55 56 56 56 56 56 55 55 54 54 54 55 55 56 56 57 57 57 57 56 56 55 55 54 54 53 53 51 51 49 48 47 46 45 43 42 41 39 38 37 36 36 36 36 36 36 37 37 37 37 36 34 32 31 30 30 32 34 37 41 48
37 38 38 39 40 41 42 42 43 43 44 45 46 46 48 49 49 51 51 52 53 54 55 55 56 56 56 56 57 57 58 59 59 60 60 61 61 61 62 62 62 63 63 63 63 62 61 60 58 56 55 53 52 51 50 49 48 47 46 45 43 42 40 38 37 35 34 34 34 33 34 35 36 36 37 37 36 35 33 31 31 32 33 35 38
29 29 30 30 30 30 30 30 31 31 32 33 34 35 36 36 37 38 39 40 40 41 42 42 43 44 44 45 45 46 47 48 50 50 51 51 52 53 54 55 56 56 58 59 59 59 58 57 56 54 52 50 48 46 45 44 44 43 42 42 41 39 38 37 36 35 34 33 32 31 31 31 32 32 33 34 35 35 35 33 33 32 32 33 35
18 18 18 17 17 17 17 18 18 19 19 20 20 20 20 21 21 22 23 23 23 24 24 25 25 26 26 26 27 27 27 28 29 29 30 31 31 33 34 35 36 36 37 38 39 39 39 39 39 39 37 36 35 33 31 30 29 29 29 28 28 27 26 27 27 27 27 27 27 27 27 27 28 29 29 29 30 31 32 33 33 32 31 32 34
13 13 13 13 13 13 13 13 14 14 14 14 14 14 14 14 15 15 15 15 15 16 16 16 16 16 17 17 17 17 17 17 17 18 18 18 18 19 19 20 20 21 21 22 22 23 23 23 23 23 22 22 21 21 20 19 18 18 18 17 17 16 16 16 16 16 16 17 17 18 19 20 21 22 23 24 25 26 27 28 29 30 30 29 30
12 12 12 12 12 13 13 13 13 13 13 14 13 13 14 13 14 14 14 14 14 14 14 15 15 15 15 15 15 15 15 15 15 15 15 15 16 16 16 16 16 16 17 17 17 17 17 17 17 17 17 17 17 17 16 16 16 16 15 15 14 14 13 13 13 13 12 12 13 12 12 13 13 14 16 17 19 20 22 23 24 26 27 27 27
10 10 11 11 11 11 11 11 12 12 12 12 12 12 12 12 12 12 12 12 12 12 12 12 13 13 13 13 13 13 14 14 14 14 14 14 14 14 14 15 15 15 15 15 15 15 15 15 15 15 15 15 15 15 15 15 15 14 14 13 13 13 12 12 12 11 11 11 11 11 11 11 11 11 11 11 12 13 15 17 19 20 22 24 25
8 8 8 8 8 8 8 8 8 8 8 8 8 8 8 8 8 8 9 9 9 9 9 9 9 10 10 10 10 11 11 11 11 11 12 12 12 12 12 12 12 12 12 12 12 12 12 12 12 12 12 12 13 13 13 13 13 13 12 12 12 11 11 11 10 10 10 10 10 9 9 10 9 9 9 9 9 10 10 11 12 14 15 17 19
8 7 7 7 7 7 7 7 7 7 7 7 7 7 7 7 7 7 7 7 7 7 7 7 7 7 8 8 8 9 9 9 9 9 9 9 10 10 10 10 10 10 10 9 9 9 10 10 11 11 11 11 12 11 11 12 11 11 11 11 11 11 10 10 10 10 9 9 9 9 9 9 9 9 8 9 8 8 9 9 9 9 10 11 13
7 7 7 7 7 7 7 7 8 8 8 8 8 8 7 7 7 7 7 7 7 7 7 7 7 7 7 7 7 7 7 7 8 7 8 8 8 8 8 8 9 8 8 8 8 8 9 9 9 10 10 10 10 10 10 10 10 10 9 10 9 9 9 9 8 8 8 8 8 8 8 8 7 8 7 8 8 8 8 8 8 8 8 8 9
7 7 7 8 7 8 8 8 8 8 8 8 8 8 7 8 8 7 8 8 7 8 7 7 7 7 7 7 7 7 7 7 7 7 7 7 7 7 7 7 7 7 8 8 8 8 8 8 8 8 8 8 8 8 8 8 8 8 8 8 8 7 7 7 7 7 7 7 7 7 7 7 6 7 6 6 7 6 7 7 7 7 7 7 7
8 7 7 8 7 8 8 8 8 7 8 7 7 7 7 7 7 7 7 7 7 7 7 7 7 7 7 7 7 7 7 7 7 7 7 7 7 7 6 7 7 6 7 6 7 7 7 7 7 7 7 7 7 7 7 7 7 7 7 6 6 6 6 6 6 6 6 6 6 6 6 6 6 5 6 6 6 6 5 6 6 6 6 6 6
8 8 8 8 7 8 8 7 8 7 7 7 7 7 7 7 7 7 7 7 7 7 7 7 7 7 7 7 7 7 7 7 7 7 7 7 7 6 6 6 6 6 6 6 6 6 6 6 6 6 6 6 6 6 6 6 6 6 6 6 6 6 5 6 5 5 5 5 5 5 5 5 5 5 5 5 5 5 5 5 5 5 5 5 5
9 8 8 8 8 8 8 8 8 8 7 7 7 7 7 7 7 7 7 7 7 7 7 7 6 6 6 6 6 6 6 6 6 6 6 6 6 6 6 6 6 6 6 6 6 6 6 6 6 6 6 6 6 6 6 6 6 5 5 5 5 5 5 5 5 5 5 5 4 5 4 4 4 4 4 4 4 4 4 4 4 4 4 4 4
10 10 10 10 9 9 9 9 8 8 8 7 7 7 7 7 7 7 7 6 6 6 6 6 6 6 6 6 6 6 6 6 6 6 6 6 6 6 6 6 6 6 6 6 6 6 6 6 6 6 6 6 6 6 6 5 5 5 5 5 5 5 5 5 5 5 5 5 4 4 4 4 4 4 4 4 4 4 4 4 4 4 4 4 4
11 12 11 11 11 10 9 9 9 8 8 8 7 7 7 7 6 6 6 6 6 6 6 6 6 6 6 6 6 6 6 6 6 6 6 6 6 6 6 6 6 6 6 6 5 6 6 6 6 6 6 6 6 6 6 5 5 5 5 5 5 5 5 5 5 5 5 5 5 5 5 4 4 4 4 4 4 4 4 4 4 4 4 3 3
12 12 11 11 10 10 9 9 9 8 8 7 7 7 6 6 6 6 6 6 6 6 5 6 5 5 5 5 5 5 5 5 5 5 5 5 5 6 5 5 5 5 5 5 5 5 5 5 5 5 5 5 5 5 5 5 5 5 5 5 5 5 5 5 5 5 5 5 5 5 5 5 5 4 4 4 4 4 4 4 4 3 4 3 3
12 11 11 10 9 9 8 8 7 7 7 7 6 6 6 6 6 6 6 6 6 6 5 5 5 5 5 5 5 5 5 5 5 5 5 5 5 5 5 5 5 5 5 5 5 5 4 4 5 4 4 5 4 4 4 4 4 4 4 4 4 4 4 4 4 4 4 5 5 5 4 4 4 4 4 4 4 4 4 4 4 4 4 3 3
11 11 10 9 8 8 7 7 7 7 7 6 6 6 6 6 6 6 6 6 5 5 5 6 6 5 6 6 6 6 6 6 6 5 5 5 5 5 5 5 5 5 5 5 5 5 4 4 4 4 4 4 4 4 4 4 4 4 4 3 3 4 4 4 4 4 4 4 4 4 4 3 3 3 3 3 3 3 3 3 3 3 3 3 3
11 10 10 9 8 8 8 8 7 7 7 6 6 6 6 6 6 6 6 6 6 6 6 6 6 6 6 6 6 6 6 6 6 6 6 6 6 6 6 6 6 5 5 5 5 4 4 4 4 4 4 4 4 4 4 4 4 4 4 3 3 4 3 4 4 4 4 4 4 4 3 3 3 3 3 3 3 2 3 3 3 3 3 3 3
11 11 10 10 9 9 9 8 8 8 7 7 7 6 6 6 6 6 6 6 6 6 6 6 6 6 6 6 6 6 6 6 6 6 6 5 6 5 5 6 5 5 5 5 5 5 5 4 4 4 4 4 4 4 4 4 4 4 4 3 3 4 3 3 4 4 4 4 4 4 3 3 3 3 3 3 3 3 2 2 2 3 3 3 3
12 12 12 11 10 10 10 9 9 8 8 8 7 7 7 7 7 6 6 6 6 6 6 6 6 6 6 6 6 6 6 6 6 5 5 5 5 5 5 5 5 5 5 5 5 5 4 4 4 4 4 4 4 4 4 4 4 4 4 3 3 3 3 3 3 4 4 4 4 3 3 3 3 3 3 3 3 3 2 2 3 3 3 3 3
14 13 13 12 11 11 11 10 10 10 9 9 8 8 7 7 7 7 7 7 7 6 7 6 6 6 6 6 6 6 5 5 5 5 5 5 5 5 5 5 5 5 5 4 4 5 4 4 4 4 4 4 4 4 4 4 4 4 3 3 3 3 3 3 3 3 3 3 3 3 3 3 3 3 3 3 3 3 2 3 3 2 3 3 3
15 14 14 13 12 11 11 11 11 10 10 9 8 8 8 7 7 7 7 7 7 6 7 6 6 6 6 6 6 5 5 5 5 5 5 5 5 5 5 5 5 5 5 5 4 4 4 4 4 4 4 4 4 4 4 4 3 3 3 3 3 3 3 3 3 3 3 3 3 3 3 3 3 3 3 3 2 3 2 3 3 2 3 3 3
14 14 14 13 12 11 11 10 10 10 9 9 8 8 8 7 7 7 7 7 7 6 6 6 6 6 6 6 6 5 6 6 5 5 5 5 5 5 5 5 5 5 5 5 5 4 4 4 4 4 3 4 4 4 4 4 3 3 3 3 3 3 3 3 3 3 3 3 3 3 3 3 3 3 3 3 2 2 2 3 3 3 3 3 3
13 13 13 12 11 11 10 9 9 9 9 8 8 8 7 7 7 6 6 6 6 6 6 6 6 6 5 5 5 5 5 6 5 5 5 5 5 5 5 5 5 5 5 5 5 4 4 4 3 3 4 4 4 4 4 3 3 3 3 3 3 3 3 3 3 3 3 3 3 3 3 3 3 3 2 2 2 2 2 2 2 3 3 3 2
12 12 12 11 10 10 9 9 8 8 8 8 8 7 7 7 7 6 6 6 6 6 6 6 6 6 6 5 5 6 6 5 6 6 5 5 5 5 6 6 5 5 5 5 5 4 4 4 3 3 4 4 4 4 4 3 3 3 3 3 3 3 3 3 3 3 3 3 3 3 3 3 3 3 3 3 2 2 3 2 3 3 2 3 3
12 12 11 11 10 9 8 8 7 7 8 7 7 7 7 7 6 6 6 6 6 6 6 6 6 6 6 6 5 6 6 6 6 6 6 6 6 6 6 6 6 6 5 5 5 4 4 4 3 3 4 4 4 4 4 4 4 3 3 3 3 3 3 3 4 3 3 3 3 3 3 3 3 3 3 3 3 3 3 3 3 3 2 2 2
12 12 11 10 10 9 8 7 7 7 7 7 7 7 7 7 6 6 6 6 6 6 6 6 6 6 6 6 6 6 6 6 6 6 6 6 6 6 6 6 6 6 6 5 5 4 4 4 3 3 3 4 4 4 4 4 4 3 3 3 3 3 3 3 4 3 3 3 3 3 3 3 3 3 3 3 3 3 3 3 3 3 3 2 2
13 12 11 10 9 8 7 7 6 7 7 7 7 7 7 7 6 6 6 6 6 6 6 6 6 7 6 6 6 6 6 6 6 6 6 6 6 5 5 6 5 5 5 5 4 4 4 3 3 3 3 3 4 4 4 4 3 3 3 3 3 3 3 3 3 3 3 3 3 3 3 3 3 3 3 3 3 3 3 3 3 3 3 2 3
13 11 10 9 9 8 7 7 6 6 7 6 7 7 7 7 6 6 6 7 6 6 6 6 7 7 6 6 6 6 6 5 5 5 5 5 5 5 5 5 5 5 5 4 4 4 3 3 3 3 3 3 4 4 4 4 3 3 3 3 3 3 3 3 3 3 3 3 3 3 3 3 3 3 3 3 3 3 3 3 3 3 3 3 3
12 11 10 9 8 8 7 7 6 6 6 6 6 7 7 7 6 6 6 7 7 6 6 6 7 7 6 6 6 5 5 5 5 5 5 5 5 5 5 5 4 4 5 4 4 4 3 3 3 3 3 3 4 4 4 4 3 3 3 3 3 3 3 3 3 3 3 3 3 3 3 3 3 3 3 3 3 3 3 3 3 3 3 3 4
12 11 10 9 8 8 7 7 7 6 6 6 6 7 7 7 6 7 7 7 7 7 6 6 6 6 6 6 5 5 5 4 4 4 4 4 5 5 5 5 5 4 4 4 4 4 3 3 3 3 3 3 4 4 4 4 3 3 3 3 3 4 4 3 3 3 3 3 3 3 3 3 3 3 3 3 3 3 3 3 3 3 3 3 3
12 11 10 9 8 8 7 7 7 7 6 6 6 7 7 7 7 7 7 7 7 7 6 6 6 6 5 5 5 5 4 4 4 4 4 4 4 5 5 5 5 5 5 4 4 4 3 3 3 3 4 4 4 4 4 3 3 3 3 4 4 4 4 3 3 3 3 3 3 3 3 3 3 3 3 3 3 3 3 3 3 3 3 3 3
11 10 9 9 8 8 8 7 7 7 7 6 7 7 7 7 7 7 7 7 6 6 6 6 5 5 5 5 4 4 4 4 4 4 4 4 4 5 5 5 5 5 5 5 4 4 4 3 3 4 4 4 4 4 4 4 3 3 3 3 4 4 4 4 4 3 3 3 3 3 3 3 3 3 3 3 3 3 3 4 4 4 4 4 3
11 10 9 8 8 8 8 7 7 7 7 7 7 7 7 7 7 6 6 6 6 6 5 5 5 5 4 5 5 4 4 5 4 4 4 4 4 5 5 6 6 6 6 6 5 5 4 4 3 4 4 4 5 5 5 4 4 3 3 3 4 4 4 4 4 4 4 4 3 3 3 3 3 3 3 3 3 3 3 4 4 4 4 4 4
10 10 9 8 8 8 7 8 8 7 7 7 7 7 7 7 6 6 6 5 5 5 5 5 5 5 5 5 5 5 5 5 5 5 5 4 4 5 6 6 7 6 6 7 6 5 5 4 4 4 4 5 5 5 5 5 5 4 4 4 4 4 4 4 4 4 4 4 4 3 3 3 3 3 3 3 3 4 4 4 4 4 4 4 4
10 9 9 8 8 8 7 8 8 7 7 7 7 7 7 6 6 5 5 5 5 5 5 5 5 5 5 5 5 5 5 5 5 5 5 5 5 4 5 6 6 7 7 7 6 6 6 5 4 4 4 4 5 5 5 6 5 5 5 4 4 4 4 4 4 4 4 4 4 4 4 4 3 3 3 4 4 4 4 4 4 4 4 4 4
Wind_Speed
102 103 104 105 105 106 106 107 107 108 109 109 110 110 111 111 111 112 112 113 113 113 113 113 113 113 113 113 113 112 112 111 111 110 109 109 108 107 107 106 106 105 105 104 104 103 102 102 101 101 101 100 100 99 99 98 97 96 95 94 94 93 92 90 88 85 83 81 81 80 80 80 80 79 78 78 78 79 80 81 82 83 84 86 87
103 104 105 105 106 107 108 108 109 110 111 111 112 112 113 113 113 114 114 114 114 113 113 113 112 112 112 111 111 110 110 109 109 108 108 107 107 107 106 106 106 106 105 105 105 104 103 102 102 102 102 101 100 100 99 98 97 96 95 94 93 92 90 88 86 84 82 80 80 79 79 80 80 79 79 78 77 78 79 80 81 82 83 84 85
104 105 106 107 108 109 110 111 111 112 113 113 113 114 114 114 113 113 113 112 112 111 111 111 110 110 110 110 109 109 109 109 108 108 108 108 108 107 107 107 106 106 106 106 105 104 103 103 103 102 101 100 99 98 97 96 95 95 93 92 91 89 88 87 86 85 83 81 80 78 79 80 80 80 80 79 79 78 78 78 79 81 82 83 84
107 108 109 109 110 111 111 112 112 112 112 112 112 112 112 112 111 111 111 110 110 110 110 110 109 109 109 109 109 109 109 109 108 108 108 108 108 107 107 106 106 106 105 104 103 103 102 101 101 100 99 98 97 96 95 94 93 92 91 89 88 87 86 86 87 86 85 83 81 80 80 80 80 82 81 81 81 80 79 79 79 80 81 82 83
108 108 109 109 109 109 110 110 110 110 110 110 110 110 110 110 110 110 110 110 110 110 109 109 109 109 109 108 108 108 108 107 107 107 106 106 106 106 106 105 104 104 103 102 101 100 100 99 99 98 97 96 95 94 93 92 91 90 89 88 87 86 86 87 88 88 87 86 84 83 83 82 82 84 84 83 83 83 82 81 81 81 82 82 83
105 106 106 107 107 107 108 108 108 108 109 109 109 109 109 109 109 109 108 108 108 108 107 107 107 106 106 106 106 106 106 106 105 105 105 105 106 106 105 105 105 104 104 104 102 102 101 101 100 99 98 97 96 96 94 94 93 92 91 90 89 88 88 89 90 91 91 89 88 87 86 85 85 86 86 85 86 86 86 85 84 83 83 83 83
103 104 104 105 105 105 106 106 106 106 107 107 107 108 107 108 107 107 107 107 107 107 107 107 106 106 106 106 107 107 107 107 107 107 108 108 108 109 109 109 109 109 108 108 107 106 106 105 104 103 102 102 101 100 99 98 97 96 95 94 93 93 92 92 92 94 94 93 93 92 90 89 89 89 89 88 88 89 90 89 88 87 86 84 84
101 102 102 103 104 104 105 105 106 107 107 108 108 109 109 109 109 109 109 109 109 109 109 109 109 109 109 110 110 110 111 111 112 112 112 112 113 113 114 114 114 114 113 113 112 111 111 110 109 108 107 107 106 105 104 103 102 101 100 100 99 98 97 97 96 97 98 98 97 96 95 94 93 92 92 92 91 91 93 94 93 92 90 88 87
101 102 103 104 105 105 106 107 108 108 109 110 110 111 111 111 111 111 112 112 112 112 112 112 112 112 112 112 113 113 113 114 114 115 115 115 116 116 117 117 117 117 116 115 115 114 113 112 112 111 110 110 109 108 108 107 106 105 105 105 104 104 103 103 102 101 102 102 101 100 100 99 98 97 96 96 95 94 94 97 98 97 95 93 91
102 103 104 105 106 107 108 108 109 110 110 111 111 112 112 113 113 113 113 113 113 114 113 113 113 113 114 114 114 115 115 115 116 116 117 117 118 118 119 119 119 119 118 117 116 116 115 114 114 113 112 111 110 109 109 108 107 107 107 107 107 108 107 107 106 106 106 106 106 105 105 104 103 102 101 100 100 98 97 98 101 102 100 98 97
104 105 106 107 108 109 110 110 111 112 112 113 113 114 114 115 115 115 116 116 116 116 116 116 116 116 116 117 117 117 118 118 119 119 120 120 120 121 121 121 121 121 121 120 119 119 118 118 117 116 115 114 113 112 111 110 110 109 109 109 109 109 109 108 108 108 108 108 109 109 109 109 108 107 106 106 105 103 102 100 102 105 104 103 103
106 107 107 108 109 110 111 112 112 113 113 114 115 115 116 116 117 117 117 118 118 118 118 119 119 119 119 119 120 120 120 121 122 122 123 123 123 123 123 124 123 123 123 123 122 122 121 121 120 120 119 119 118 117 116 115 114 113 112 111 111 111 111 110 110 109 109 109 109 110 110 111 111 111 111 111 110 109 107 105 105 108 108 107 107
107 108 109 110 110 111 112 113 113 114 115 116 116 117 117 118 119 119 119 120 120 120 121 121 121 121 121 122 122 123 123 124 124 124 125 125 125 125 125 125 125 125 125 125 125 124 124 123 123 123 123 122 122 121 120 119 118 117 116 115 115 115 114 113 113 112 112 111 111 111 112 112 112 112 113 113 113 113 113 111 110 111 111 110 111
109 110 111 112 113 113 114 115 116 117 118 118 119 120 120 121 122 122 123 123 123 124 124 125 125 125 125 125 126 126 126 126 127 127 127 127 127 127 127 127 127 127 127 127 127 127 127 126 126 126 126 125 125 124 124 123 122 121 121 120 119 119 118 118 117 116 115 115 114 114 114 114 114 115 115 115 115 116 115 115 115 115 115 114 114
111 112 113 114 115 116 117 118 118 119 120 121 122 122 123 123 124 125 125 126 126 127 127 128 128 128 129 129 129 129 129 130 130 130 130 130 130 130 130 130 130 130 130 131 131 131 131 130 130 130 129 129 128 127 127 126 126 125 125 124 124 123 123 122 121 120 120 119 119 118 117 117 118 118 118 118 118 118 118 118 118 118 118 118 118
111 112 113 114 114 115 116 117 118 119 120 121 122 122 123 124 124 125 126 127 127 128 128 129 129 130 130 130 130 130 130 131 131 131 132 132 132 132 132 132 132 132 132 133 133 133 133 133 133 133 132 132 131 130 129 129 128 128 127 127 127 126 126 125 125 124 124 123 123 122 121 121 121 122 122 122 122 122 122 122 122 122 121 121 121
110 110 111 112 113 113 114 115 116 117 118 119 120 121 121 122 122 123 124 125 126 126 127 127 128 128 129 129 129 129 130 130 130 130 130 131 131 131 131 131 132 132 132 132 133 133 133 133 133 133 133 133 132 131 131 130 129 128 128 128 128 127 126 126 126 126 126 126 125 125 125 124 125 125 125 125 126 126 126 126 127 127 126 125 125
106 107 108 109 110 111 111 112 113 114 115 115 116 117 118 119 119 120 121 122 122 123 124 124 125 126 126 127 127 127 128 128 128 128 128 128 129 129 129 129 129 130 130 130 130 131 131 131 131 131 131 131 131 131 130 130 129 128 127 127 126 126 126 125 125 125 125 125 125 126 126 126 126 127 127 128 128 129 129 130 130 131 131 130 130
102 103 104 105 106 107 108 108 109 110 111 112 113 113 114 115 115 116 117 118 118 119 120 121 121 122 123 123 124 124 125 125 125 125 125 125 126 126 126 126 126 127 127 127 128 128 128 129 129 129 129 129 129 129 129 129 128 128 127 127 126 125 125 124 124 124 124 124 124 124 125 125 126 127 127 128 129 130 131 132 133 133 134 134 134
96 97 98 99 100 101 102 103 104 105 106 107 108 110 111 111 112 113 113 114 115 116 117 118 118 119 120 120 121 121 122 122 122 122 123 123 123 123 123 124 124 124 124 124 125 125 125 125 126 126 127 127 127 127 127 127 127 127 127 126 125 125 124 123 123 123 122 122 122 122 123 123 124 124 125 126 128 129 131 132 133 135 136 136 137
92 93 93 94 95 96 97 98 99 100 101 102 103 104 105 106 107 108 109 110 111 112 112 113 114 115 116 117 118 118 119 119 120 120 120 120 120 120 121 121 121 121 121 122 122 122 122 122 123 123 123 124 124 124 124 124 125 125 125 124 123 123 122 122 121 121 120 120 120 120 120 121 122 122 122 124 125 127 129 131 132 134 135 137 138
89 90 91 92 93 94 95 96 97 98 99 100 101 101 102 102 102 103 104 105 106 107 107 108 109 110 111 112 113 114 115 116 116 117 117 117 117 118 118 118 118 118 119 119 119 119 119 119 119 119 119 119 120 120 121 121 121 121 121 121 121 120 120 119 119 118 118 118 118 118 118 119 119 120 120 121 122 124 126 127 129 132 133 135 137
85 86 87 88 89 90 91 92 93 95 96 97 98 99 99 100 100 100 101 102 102 103 104 104 105 106 106 107 108 109 110 111 112 113 113 114 114 115 115 115 116 116 116 116 117 117 117 117 117 117 116 116 117 117 117 117 118 118 118 118 118 118 118 117 117 117 117 117 117 116 117 118 118 118 118 119 120 121 123 124 125 127 130 131 134
82 82 83 84 85 85 86 87 88 89 90 92 93 94 94 95 96 97 97 98 99 100 100 101 102 102 103 104 104 105 106 107 107 108 109 110 110 111 112 112 113 113 114 114 115 115 115 115 115 115 115 115 115 115 116 116 116 116 116 116 116 117 116 116 116 116 116 116 116 116 116 117 117 117 117 118 119 120 121 122 122 123 125 127 129
78 79 79 80 80 81 81 82 83 84 85 86 87 87 88 89 90 91 92 93 94 95 96 96 97 98 99 100 101 102 102 103 104 104 105 106 107 107 108 108 109 110 111 111 112 112 113 113 113 113 113 114 114 114 114 115 115 115 114 115 115 115 115 115 115 115 115 115 115 115 115 116 117 116 117 117 118 119 119 120 120 121 122 123 124
76 76 76 76 77 77 78 78 79 80 80 81 82 82 83 83 84 85 86 87 89 90 91 91 92 93 94 95 96 97 98 99 100 100 101 102 103 103 104 104 105 106 107 107 108 108 109 109 110 110 110 111 111 112 112 113 113 113 113 113 113 113 113 113 113 113 114 114 114 114 114 115 115 115 115 116 116 117 118 118 118 119 120 121 122
75 76 76 76 77 77 78 78 78 79 79 80 80 80 80 80 81 81 82 83 84 86 87 87 89 90 91 92 93 94 95 95 96 97 97 98 99 99 100 100 101 101 102 103 104 104 105 105 106 106 107 108 108 109 110 110 110 110 110 111 110 110 110 110 111 111 111 112 112 112 113 113 114 114 114 114 115 116 116 116 117 117 118 118 119
76 77 78 78 79 79 79 79 79 79 79 79 79 79 79 79 79 80 80 81 82 82 83 84 85 86 88 89 90 91 92 93 93 94 95 95 96 96 97 97 97 98 99 99 100 101 101 102 103 103 104 104 105 106 107 107 107 107 108 108 107 107 107 107 107 108 108 109 110 110 111 111 112 113 112 113 113 114 114 114 115 115 116 116 116
76 77 78 79 79 80 80 80 80 80 80 80 80 80 79 79 79 79 79 79 80 81 81 82 83 84 85 86 87 88 89 90 91 91 92 93 93 94 94 95 95 96 96 97 97 98 98 99 99 100 100 101 101 103 103 103 103 104 105 104 104 104 104 104 104 105 105 106 107 108 109 110 110 111 111 111 111 112 113 112 112 114 115 115 114
77 77 78 79 79 80 80 80 80 80 80 80 80 80 79 79 78 78 78 78 79 79 80 80 81 81 82 83 84 85 86 87 87 88 89 90 90 91 91 92 92 93 93 94 94 95 95 95 96 96 96 97 97 98 99 99 99 100 100 100 100 100 100 100 100 101 102 103 104 105 106 107 108 108 108 108 108 109 110 110 110 112 113 113 113
78 78 79 79 79 79 79 79 79 80 80 80 79 79 78 78 77 77 77 77 77 77 78 78 79 79 80 81 82 82 83 84 84 85 86 86 87 87 88 88 89 90 90 91 91 92 92 92 92 92 92 93 93 94 94 94 94 95 96 95 95 95 95 95 96 96 97 98 100 102 103 103 104 104 105 105 105 105 106 108 108 108 109 110 110
78 78 79 79 79 79 79 79 79 79 79 79 78 78 77 76 76 76 75 75 75 75 75 76 76 77 77 78 79 80 80 81 81 82 82 83 83 84 84 85 85 86 87 87 88 88 88 88 88 88 88 89 90 90 90 89 90 91 92 91 90 89 89 90 90 91 92 93 95 97 98 98 99 100 102 102 102 102 102 104 104 105 105 106 107
77 78 79 79 79 79 78 78 78 78 78 77 77 76 75 75 74 74 74 74 74 74 73 74 74 74 75 75 76 77 78 78 79 79 79 79 80 80 80 81 82 83 83 84 84 84 84 84 83 83 83 84 85 85 85 85 85 87 88 88 86 84 84 85 86 86 87 89 92 93 94 93 94 96 97 98 99 98 98 99 99 101 102 102 103
76 77 78 78 78 77 77 76 76 76 76 76 75 74 74 73 73 73 72 72 72 73 72 73 73 73 73 73 74 75 75 76 76 76 77 77 77 77 77 77 78 79 80 80 80 81 80 80 79 78 78 79 80 80 79 80 81 82 84 84 82 80 81 81 81 82 84 86 88 89 89 89 90 92 93 95 95 95 94 93 93 94 97 99 99
75 76 76 77 76 75 75 74 75 75 74 74 74 73 72 72 72 72 72 71 71 72 72 72 72 72 72 72 73 73 74 74 75 75 75 75 75 75 75 75 76 77 77 77 77 78 78 77 76 74 74 75 76 76 75 76 77 79 80 80 78 77 77 77 77 79 81 83 84 86 86 85 86 89 91 92 92 91 89 89 88 89 91 93 95
76 77 77 77 76 75 74 73 73 74 73 73 73 72 71 71 71 71 71 71 71 71 71 71 72 72 72 72 72 73 73 74 74 74 74 74 74 74 74 73 74 75 75 75 75 75 75 75 74 72 71 72 73 73 73 74 75 76 77 76 75 75 74 74 74 76 77 79 80 81 81 80 82 86 89 89 88 87 86 86 86 86 87 88 91
77 78 78 78 77 75 74 73 73 73 73 72 72 72 71 71 70 70 70 70 70 70 70 71 71 71 71 71 72 72 72 73 73 73 73 72 72 72 72 71 71 72 73 73 72 73 74 73 72 71 69 69 71 72 72 72 73 74 74 74 73 72 72 72 72 73 75 76 77 76 75 76 78 83 85 85 83 82 81 82 83 83 84 86 87
77 77 77 77 77 75 74 73 73 73 72 72 72 72 71 71 70 70 69 69 69 69 69 70 70 70 70 70 70 70 71 71 72 71 71 70 70 70 69 69 69 70 71 71 71 72 73 72 70 69 67 67 68 71 71 71 71 72 72 72 71 70 70 69 69 71 72 74 73 72 71 73 76 79 80 80 78 77 77 78 80 80 81 82 84
76 76 76 77 76 75 74 73 73 73 72 72 72 72 72 71 71 70 69 69 68 68 69 69 69 69 69 69 69 69 69 69 70 70 69 68 68 68 68 68 68 69 70 71 71 72 73 71 69 66 65 65 66 69 71 70 69 70 71 69 68 67 67 66 67 69 71 71 69 69 69 71 73 75 76 76 74 73 73 75 77 77 78 80 82
76 76 76 76 76 75 75 73 73 72 72 72 72 72 72 72 71 70 69 68 68 68 68 68 68 68 68 68 68 68 68 68 68 68 68 67 66 67 67 67 68 69 69 70 70 71 72 71 68 65 63 63 65 68 69 69 68 69 69 67 65 64 63 63 65 67 68 68 66 66 68 69 69 71 72 72 71 70 71 73 74 75 77 78 79
78 78 77 77 76 76 75 74 72 72 72 71 71 72 72 71 71 70 69 68 67 68 68 68 68 68 68 67 67 66 67 67 67 67 67 66 65 65 66 66 67 67 68 69 69 70 70 69 67 64 62 62 63 65 67 68 68 68 68 65 63 62 60 60 63 65 65 65 64 64 65 66 66 67 68 68 68 68 69 70 72 74 75 75 75
81 80 79 78 78 77 76 74 72 71 71 70 70 71 71 70 70 69 69 68 67 68 68 67 67 68 68 67 67 66 65 66 66 66 66 65 64 63 63 64 64 65 66 67 68 68 68 68 66 63 60 60 61 62 65 67 68 68 66 63 60 60 59 59 62 63 63 62 61 62 63 63 62 63 64 65 65 65 66 68 70 72 72 71 70
83 82 81 80 79 78 77 75 73 72 71 70 69 70 71 70 70 69 68 67 67 67 67 67 67 67 67 67 66 65 65 64 64 64 64 63 62 61 61 61 62 63 64 65 65 66 66 65 63 61 58 57 58 59 61 65 67 66 63 60 58 57 57 58 60 61 61 59 59 60 61 60 60 61 61 62 63 63 64 66 67 68 67 66 66
85 84 83 82 81 80 79 77 75 72 72 71 70 70 71 71 70 69 68 67 67 67 66 66 66 66 66 66 65 65 64 63 63 62 62 61 59 59 59 59 59 61 62 63 63 63 63 62 60 58 55 53 54 56 59 62 65 64 60 56 55 55 55 56 58 58 58 57 57 57 58 57 58 59 59 59 60 61 62 64 64 63 62 61 63
87 86 85 83 82 81 80 79 76 74 73 71 70 70 71 71 70 69 68 67 67 67 66 65 65 65 65 65 65 64 64 63 62 60 59 58 57 56 56 56 57 58 59 60 61 61 60 59 57 55 53 51 51 53 56 59 61 60 56 53 52 53 54 55 55 55 55 55 54 55 55 55 56 57 57 57 58 59 60 61 60 59 59 60 62
88 87 86 84 83 82 81 79 78 76 74 72 71 70 70 71 70 69 68 67 67 66 66 65 65 65 65 65 64 64 63 62 61 59 57 56 54 54 54 54 55 56 57 58 59 59 58 57 54 52 51 50 49 51 54 56 56 55 52 49 50 51 53 53 52 52 52 52 52 52 53 53 53 54 54 55 56 56 57 58 57 57 58 60 62
89 88 86 85 83 82 81 80 78 77 75 73 72 70 70 70 70 68 67 67 67 66 66 66 65 65 65 64 64 63 62 62 60 58 56 54 52 51 51 51 53 55 56 56 56 57 56 55 52 49 49 48 47 49 52 53 53 52 49 46 47 49 51 51 50 50 50 50 50 50 51 51 51 51 51 52 53 54 54 55 55 55 57 58 59
89 88 87 85 84 82 81 80 79 77 76 74 72 70 70 70 69 68 67 67 67 66 66 65 65 65 64 63 63 61 61 60 59 57 55 53 50 49 48 48 49 52 54 55 55 55 55 53 50 48 47 46 45 46 49 51 51 50 47 44 44 47 48 48 48 48 48 48 48 48 49 48 48 48 49 49 50 51 52 52 52 53 55 56 56
90 89 87 86 84 83 81 80 79 77 76 74 72 71 70 70 69 68 67 67 66 66 66 65 64 64 63 62 61 60 58 58 57 56 55 52 49 46 46 47 48 49 50 53 54 55 54 52 48 45 44 43 42 42 45 49 50 49 46 43 43 45 46 46 46 46 46 46 46 46 46 46 46 46 46 47 47 48 49 50 50 51 52 54 54
91 89 88 86 84 82 81 80 79 77 76 75 73 71 71 70 69 68 67 66 66 66 65 64 63 62 61 60 59 58 57 56 55 54 54 53 50 45 41 43 47 49 48 49 52 53 53 52 49 45 42 41 40 39 41 44 47 47 45 43 42 43 45 45 44 44 44 45 45 44 44 44 44 44 44 45 45 46 47 47 48 49 51 52 53
91 90 88 86 84 82 81 79 78 77 76 75 73 72 71 71 70 68 67 66 65 65 64 63 62 61 60 59 57 56 56 55 53 53 53 53 53 48 41 37 39 45 48 48 49 51 52 52 50 47 43 39 38 38 39 40 42 43 43 42 41 41 42 43 43 42 43 43 43 43 42 42 42 42 43 43 43 44 44 45 46 48 49 50 51
Wind_Direction
278 278 278 278 278 278 278 278 278 278 278 278 278 278 278 278 278 277 277 277 277 277 277 277 277 277 277 277 277 276 276 276 276 276 276 276 276 276 275 275 275 275 274 274 274 273 273 273 273 272 272 272 271 271 271 271 271 270 270 269 268 267 267 266 263 260 260 260 260 260 260 260 260 259 258 257 256 256 256 256 255 254 253 252 250
279 279 278 278 278 278 278 278 278 278 278 278 278 278 278 278 278 277 277 277 277 277 277 277 277 277 277 276 276 276 276 276 276 276 276 276 276 275 275 275 275 274 274 274 273 273 273 273 272 272 272 271 271 271 271 270 270 270 269 268 267 266 265 263 260 258 258 258 258 259 260 260 260 259 258 257 255 255 255 255 255 254 253 252 251
279 278 278 278 278 278 278 278 278 278 278 278 278 277 277 277 277 277 277 277 277 277 276 276 276 276 276 276 276 276 276 276 276 276 276 276 276 275 275 274 274 274 273 273 273 273 273 272 272 271 271 271 271 270 270 270 269 268 268 267 266 265 263 260 258 256 256 256 256 257 258 259 260 259 259 257 256 255 255 255 255 255 254 253 251
278 278 278 278 278 278 278 277 277 277 277 277 277 277 277 277 277 276 276 276 276 276 276 276 276 276 276 276 276 276 276 276 276 276 276 276 276 275 275 274 274 274 273 273 273 272 272 272 271 271 271 270 270 270 269 269 268 267 266 265 264 263 261 259 257 256 256 255 255 255 256 257 258 259 259 258 257 256 255 254 254 254 254 253 252
278 278 278 278 277 277 277 277 277 277 277 277 277 277 277 277 276 276 276 277 277 277 277 277 277 277 277 277 277 277 277 277 277 277 276 276 276 275 275 274 274 273 273 273 272 272 271 271 270 270 270 270 269 269 268 267 267 266 265 264 263 262 260 258 257 256 256 255 255 255 255 255 256 257 258 258 258 257 256 255 254 254 254 253 252
278 278 278 278 278 278 277 277 277 277 277 277 277 277 277 277 277 277 277 277 277 277 277 277 277 277 277 277 277 277 277 277 276 276 276 275 275 274 274 274 273 273 273 272 272 271 271 270 270 269 269 269 268 267 267 266 266 265 264 263 262 261 259 258 257 257 256 256 255 254 254 254 255 256 257 257 258 258 257 256 255 254 253 253 252
278 278 278 278 278 278 278 278 278 278 278 278 278 278 277 278 278 278 278 278 277 277 277 277 277 277 277 277 277 276 276 276 276 275 275 274 274 274 273 273 273 272 272 272 271 271 271 270 270 269 269 268 268 267 266 265 265 264 263 263 262 260 259 258 257 257 257 256 255 254 254 253 253 254 255 255 256 257 257 256 255 254 253 252 252
279 279 279 279 279 279 278 278 278 278 278 278 278 278 278 278 278 278 277 277 277 277 277 277 277 276 276 276 276 275 275 275 275 275 274 274 274 273 273 273 272 272 272 271 271 271 270 270 270 269 269 268 268 267 266 266 265 264 264 263 262 261 259 258 257 257 256 256 255 254 253 253 252 251 252 253 253 254 256 257 256 255 253 252 251
279 279 279 279 279 278 278 278 278 278 278 278 278 278 278 278 278 277 277 277 277 277 277 276 276 276 276 275 275 275 275 274 274 274 274 274 274 273 273 273 273 273 272 272 272 272 271 271 270 270 269 268 268 267 267 266 266 265 264 263 262 261 260 259 258 257 256 256 255 254 253 252 251 250 250 250 250 250 252 255 256 255 254 253 251
279 279 279 279 278 278 278 278 278 278 278 278 278 278 278 278 278 278 278 277 277 277 277 276 276 276 276 275 275 275 275 274 274 274 274 274 273 273 273 273 273 273 273 273 273 273 273 272 272 271 271 270 269 268 268 267 266 265 264 263 262 261 261 260 259 258 257 256 256 255 254 253 252 251 249 249 248 248 248 250 253 255 254 254 252
279 279 279 278 278 278 278 278 278 278 278 278 278 278 278 278 278 278 277 277 277 277 277 276 276 276 275 275 275 275 274 274 274 274 274 273 273 273 273 273 273 274 274 274 274 274 274 274 273 273 272 272 271 270 269 268 267 266 265 264 263 262 261 260 259 258 257 256 256 256 255 254 253 252 250 249 248 247 246 245 248 252 253 253 253
278 278 278 278 277 277 277 277 278 278 278 278 278 278 277 277 277 277 277 277 277 276 276 276 276 275 275 275 274 274 274 274 273 273 273 273 273 273 273 274 274 274 274 274 274 274 274 274 273 273 273 272 272 271 270 269 268 267 266 265 264 263 262 261 260 259 258 257 256 255 255 254 253 252 251 250 249 248 246 244 244 247 249 250 252
278 278 278 278 278 278 278 278 278 278 278 277 277 277 277 277 277 277 277 276 276 276 276 275 275 275 275 274 274 274 273 273 273 273 273 273 273 274 274 274 274 274 274 274 273 273 273 273 272 272 272 272 271 271 270 270 269 268 267 266 265 264 264 262 261 260 259 258 257 256 255 254 253 252 251 250 249 248 247 245 244 244 245 247 249
279 279 279 279 279 279 279 279 278 278 278 278 278 277 277 277 277 277 277 276 276 276 276 276 275 275 275 274 274 274 274 274 274 274 274 274 274 274 274 274 274 274 273 273 273 273 273 272 272 272 271 271 270 270 270 269 269 268 268 267 266 265 264 263 262 261 260 259 257 256 255 254 254 253 252 250 249 248 247 246 244 244 243 243 245
280 280 280 280 279 279 279 278 278 278 278 278 278 277 277 277 277 277 277 276 276 276 276 275 275 275 275 274 274 274 274 274 274 274 274 273 273 273 273 273 273 273 273 273 273 273 273 273 272 272 271 271 270 270 270 269 269 268 268 267 266 265 265 264 263 262 260 259 258 257 256 255 254 253 252 251 249 248 247 245 244 243 243 242 242
281 281 280 280 280 279 279 279 279 278 278 278 278 277 277 277 276 276 276 276 276 276 275 275 275 275 275 274 274 274 274 274 273 273 273 273 273 273 273 273 273 273 273 273 273 273 272 272 272 272 272 271 271 270 270 269 269 268 268 267 266 265 265 264 263 262 261 260 259 258 256 255 254 253 252 251 250 248 247 246 244 243 242 241 241
282 282 281 281 281 280 280 279 279 279 278 278 278 277 277 277 276 276 276 276 275 275 275 275 275 275 274 274 274 274 273 273 273 273 273 273 273 272 272 272 272 272 272 272 272 272 272 272 272 272 272 271 271 271 270 270 269 268 268 267 267 266 265 264 263 263 262 261 260 259 257 256 255 253 252 251 250 249 247 246 245 243 242 240 239
283 282 282 282 281 281 280 280 280 279 279 278 278 278 278 277 277 277 276 276 276 276 275 275 275 275 274 274 274 274 274 273 273 273 273 273 272 272 272 272 272 272 272 271 271 271 271 271 271 271 271 271 271 271 270 270 270 269 268 268 267 266 266 265 264 263 262 261 260 259 258 257 256 255 253 252 251 250 248 247 246 244 243 241 239
284 283 283 282 282 282 281 281 280 280 280 279 279 279 278 278 278 277 277 277 276 276 276 276 275 275 275 275 275 274 274 274 274 273 273 273 273 272 272 272 272 271 271 271 271 271 271 271 270 270 270 270 270 270 270 270 270 269 269 268 268 267 266 266 265 264 263 262 261 260 259 258 257 256 254 253 252 251 250 249 247 246 244 243 241
284 284 283 283 282 282 281 281 281 280 280 279 279 279 278 278 278 278 277 277 277 276 276 276 276 275 275 275 275 275 274 274 274 274 273 273 273 272 272 272 272 271 271 271 271 271 270 270 270 270 270 270 270 270 270 269 269 269 269 268 268 267 266 266 265 264 264 263 262 261 260 259 258 256 255 254 253 252 251 250 249 248 246 245 243
287 287 286 285 285 284 283 283 282 282 281 280 280 279 279 278 278 278 278 277 277 277 276 276 276 275 275 275 275 275 274 274 274 274 273 273 273 273 272 272 272 272 271 271 271 271 270 270 270 270 269 269 269 269 269 269 268 268 268 268 267 267 266 266 265 264 264 263 262 261 260 260 258 257 256 255 253 252 251 250 250 249 248 246 245
288 288 287 287 286 286 285 285 284 284 283 283 282 282 281 281 280 279 279 278 278 277 277 276 276 276 275 275 275 275 274 274 274 274 273 273 273 273 272 272 272 272 271 271 271 270 270 270 269 269 269 268 268 268 268 268 267 267 267 267 267 266 266 266 265 265 264 263 262 262 261 260 259 258 257 256 255 253 252 251 250 249 248 247 247
289 289 288 287 287 286 285 285 284 284 283 283 283 282 282 282 282 281 281 280 279 279 278 278 277 277 276 276 275 275 275 274 274 274 274 273 273 273 273 272 272 272 271 271 271 270 270 270 269 269 269 268 268 268 268 267 267 267 267 266 266 266 266 265 265 264 264 263 263 262 261 261 260 259 258 257 256 254 253 252 251 250 249 248 247
292 291 290 289 289 288 287 286 285 285 284 283 283 282 282 282 281 281 281 280 280 280 279 279 278 278 277 277 276 276 275 275 275 274 274 274 273 273 273 273 272 272 272 271 271 271 270 270 270 270 269 269 269 268 268 268 267 267 267 266 266 266 266 265 265 265 264 263 263 262 262 261 260 259 258 258 257 256 255 253 252 251 250 249 248
295 294 293 292 291 290 289 288 288 287 286 285 285 284 284 283 283 282 281 281 280 280 279 279 278 278 278 277 277 276 276 275 275 275 274 274 273 273 273 273 272 272 272 272 271 271 271 271 270 270 270 269 269 269 268 268 268 267 267 267 266 266 266 266 265 265 264 264 263 262 262 261 260 259 259 258 257 256 255 254 253 252 251 250 249
299 298 297 296 295 294 293 293 292 291 290 289 288 287 286 285 284 284 283 282 282 281 281 280 279 279 278 278 277 277 276 276 275 275 274 274 274 273 273 273 272 272 272 272 272 271 271 271 270 270 270 269 269 269 268 268 268 267 267 266 266 266 266 265 265 265 264 264 263 263 262 262 261 260 259 258 257 257 256 255 254 253 252 251 250
303 302 302 301 300 300 299 298 297 296 294 293 292 291 290 289 288 286 286 285 284 283 283 282 281 281 280 279 279 278 278 277 277 276 276 275 275 274 274 274 273 273 272 272 272 271 271 271 270 270 270 269 269 268 268 268 267 267 267 266 266 265 265 265 265 264 264 264 263 263 262 262 261 261 260 259 258 258 257 256 255 255 253 252 251
307 306 305 304 304 303 302 301 300 299 298 297 296 294 293 292 291 290 289 288 287 286 285 284 283 282 282 281 280 280 279 279 278 278 277 277 276 276 276 275 275 274 273 273 272 272 271 271 270 270 269 269 269 268 268 268 267 267 267 267 266 266 265 265 265 264 264 264 263 263 262 262 261 261 260 259 259 258 257 257 256 256 255 254 252
308 307 306 305 304 304 303 302 302 301 300 299 298 297 296 295 294 293 291 290 289 288 287 286 285 284 283 282 281 281 280 280 279 279 278 278 277 277 277 276 276 275 275 274 273 273 272 272 271 271 270 270 270 269 269 269 268 268 268 267 267 266 266 265 265 264 264 264 263 263 262 262 261 260 260 259 259 258 258 257 257 256 255 255 254
309 308 307 306 305 304 304 303 303 302 301 300 299 298 297 296 295 294 293 292 291 290 288 288 287 286 285 284 283 282 281 281 280 279 279 279 278 278 277 277 277 276 276 275 275 274 274 273 273 272 272 271 271 270 270 269 269 268 267 267 266 266 265 265 264 263 263 263 262 262 261 260 260 260 259 258 258 257 257 257 256 255 255 255 254
310 309 308 307 306 305 305 305 304 303 302 301 300 299 298 298 297 296 294 293 292 291 290 289 288 288 287 286 285 284 284 283 282 281 281 280 280 279 279 279 278 278 277 276 276 275 275 274 274 273 273 272 272 271 270 270 269 269 268 267 266 266 266 265 264 263 263 262 262 261 260 260 259 259 259 258 257 256 256 256 255 255 255 254 254
311 310 309 309 308 308 308 307 306 305 304 303 302 301 300 299 298 298 296 295 294 293 292 291 290 290 289 288 287 286 286 285 284 283 283 282 282 282 281 281 280 279 279 278 277 277 276 275 275 274 274 273 273 272 272 271 270 270 269 268 267 266 266 265 265 264 263 262 261 261 260 260 259 259 258 258 257 256 255 255 255 255 255 254 254
313 313 312 312 311 311 310 309 308 307 305 304 304 303 302 302 301 300 298 297 296 295 294 293 292 291 290 290 289 288 287 287 286 285 285 284 284 283 283 282 282 281 280 280 279 278 278 277 276 276 275 274 274 273 273 272 271 271 270 269 267 266 265 264 264 263 263 262 261 260 260 260 259 259 258 258 257 256 255 254 254 255 255 255 254
316 315 314 314 313 313 312 311 310 308 307 306 306 305 304 304 303 302 301 300 299 298 297 296 294 293 292 291 290 289 289 288 288 287 287 286 286 285 285 284 283 283 282 282 281 281 280 279 278 277 277 276 275 274 274 273 272 271 270 269 268 267 265 264 263 263 262 261 261 260 260 259 259 259 258 258 257 256 255 254 253 252 253 254 254
319 317 316 315 315 315 314 313 312 311 309 308 308 307 306 305 304 303 303 302 301 300 299 298 297 296 294 293 293 292 291 290 290 289 289 288 288 287 287 286 286 285 284 284 283 282 281 280 279 278 277 277 276 275 274 273 272 271 270 269 268 267 266 264 263 262 261 260 260 260 259 259 259 259 258 258 257 257 256 256 254 252 251 252 252
321 320 319 318 318 317 316 315 314 313 312 311 310 309 308 308 307 306 305 304 303 302 301 300 299 298 297 296 295 294 293 292 292 291 291 290 290 289 289 288 288 287 286 285 284 283 282 281 280 279 278 277 276 275 274 273 272 271 270 269 268 267 266 265 263 262 261 260 259 258 258 258 258 257 257 257 257 256 256 255 254 253 252 250 250
324 322 321 320 320 319 318 317 316 315 314 313 312 311 311 310 309 308 307 306 305 303 302 301 300 299 298 297 296 295 295 294 293 293 292 292 292 291 290 290 289 288 287 286 285 284 282 281 280 279 279 278 278 277 275 274 272 272 271 270 269 268 267 266 265 263 262 261 260 259 258 258 257 256 256 256 256 255 255 254 253 252 251 250 249
325 324 323 322 321 321 320 319 318 316 315 314 313 313 312 311 310 309 308 307 306 305 303 302 301 300 299 298 297 297 296 295 295 294 294 293 293 292 292 291 290 289 288 286 285 284 283 281 281 280 280 280 279 277 276 275 273 273 272 271 270 269 269 267 266 265 264 262 262 261 259 258 257 257 257 256 256 255 254 254 253 251 250 249 248
326 325 324 323 322 322 321 320 319 318 317 316 315 314 313 312 311 310 310 309 307 306 305 304 302 301 301 300 299 298 298 297 297 296 296 295 294 294 293 292 291 289 288 287 286 285 284 283 282 282 281 280 279 278 277 276 275 274 272 271 270 270 269 268 267 266 265 263 263 262 260 258 257 257 258 257 257 255 254 253 253 251 250 249 247
328 327 326 325 324 323 322 321 321 320 318 317 316 315 314 313 313 312 311 310 309 308 306 305 304 304 303 302 301 301 300 299 299 298 297 296 295 295 294 292 291 290 289 288 287 286 285 284 284 284 283 282 280 279 278 277 276 274 273 272 271 270 269 268 267 265 264 264 263 261 260 259 257 257 257 257 256 255 253 253 252 251 249 248 247
330 329 328 327 326 325 324 323 322 321 320 318 317 316 315 314 314 313 312 312 311 309 308 307 306 306 305 304 303 302 301 300 299 298 297 296 296 295 294 293 292 291 290 288 287 287 286 286 286 285 285 283 282 281 280 279 277 275 274 274 273 272 271 269 267 265 264 263 262 261 259 258 257 257 257 256 255 254 252 251 251 250 249 248 248
332 331 330 329 327 326 325 324 323 322 321 320 319 318 316 315 315 314 313 313 312 310 309 309 308 307 306 304 304 303 302 300 299 298 297 297 296 296 295 294 292 291 290 289 288 287 287 286 286 286 286 284 283 282 280 279 278 276 276 276 275 274 272 270 268 266 265 264 263 261 260 259 258 257 256 255 254 253 252 250 250 249 249 248 248
333 332 331 330 329 328 326 325 325 324 323 321 321 319 317 316 316 315 314 314 312 311 310 309 309 307 306 305 304 303 302 301 300 299 299 298 298 297 296 295 293 292 290 289 288 287 287 287 287 287 286 285 283 281 280 279 278 277 277 277 276 275 273 270 268 267 266 265 263 262 261 260 258 257 256 255 254 253 251 250 250 249 249 249 248
334 333 332 331 330 329 328 327 326 326 324 323 322 321 319 318 317 316 316 315 313 312 311 311 309 308 307 306 305 304 303 303 302 302 301 301 300 299 297 295 294 292 291 289 288 288 288 287 288 288 287 285 283 281 279 278 278 278 279 279 278 275 272 270 268 268 267 265 264 262 261 260 258 257 256 255 254 253 252 251 251 250 250 249 247
335 334 333 332 331 330 329 328 327 327 325 324 323 322 321 319 318 318 318 316 314 313 313 312 311 309 308 307 307 306 306 305 304 304 303 302 301 300 298 296 294 293 291 290 289 289 288 288 289 289 288 286 283 281 279 278 279 279 280 280 278 275 272 270 269 268 267 265 264 262 261 259 258 256 255 254 253 252 252 251 250 250 248 246 245
336 334 333 333 332 330 329 328 328 327 326 325 325 324 322 320 319 319 319 317 316 315 315 313 312 311 310 310 309 308 308 307 306 305 304 303 302 301 299 298 296 294 292 291 291 290 290 290 290 290 289 287 285 282 280 279 279 280 280 280 277 275 272 270 269 268 266 265 264 262 260 259 257 256 255 253 252 251 251 250 249 248 246 245 243
336 335 334 333 332 331 330 329 329 328 327 326 325 325 323 321 321 321 320 318 317 317 315 315 314 313 312 311 311 310 309 308 308 306 305 304 303 302 301 300 298 296 294 293 292 292 291 291 292 291 289 287 286 284 282 281 280 280 280 278 275 273 272 271 270 268 266 265 263 261 260 258 256 255 254 252 251 250 249 248 247 246 245 244 243
336 335 334 333 333 332 331 330 329 328 327 327 326 326 324 322 322 322 320 319 318 318 317 316 315 314 313 313 312 311 310 309 308 307 306 305 305 304 303 301 298 297 296 295 294 293 292 292 292 291 290 288 287 285 284 283 282 281 280 278 275 273 272 270 269 268 266 264 262 261 259 258 256 254 253 251 250 249 247 246 245 244 244 243 242
337 336 335 334 333 332 331 330 330 328 328 327 327 327 325 324 323 322 321 320 320 319 318 317 317 315 314 314 313 312 311 310 309 309 307 306 305 305 305 302 299 297 296 295 295 294 293 292 292 290 289 288 287 286 284 284 283 283 282 280 276 274 272 271 269 267 266 264 262 260 258 257 255 253 251 250 248 247 246 245 243 242 242 241 240
337 336 335 334 333 333 332 331 330 329 328 328 328 327 326 324 324 323 322 322 321 320 319 318 317 316 315 315 314 313 312 311 311 310 308 307 305 305 305 303 301 298 296 295 294 294 294 294 293 291 289 289 287 285 283 282 283 283 283 281 278 275 273 271 269 267 265 263 261 259 257 256 254 252 250 248 247 245 244 243 242 241 240 239 239
338 336 336 335 334 333 333 332 330 329 329 328 328 328 326 325 324 324 323 323 322 321 320 319 318 317 316 316 315 314 313 312 312 310 309 308 306 305 303 301 300 298 297 296 294 293 294 294 294 294 292 290 289 286 283 281 280 280 280 279 277 274 272 271 269 267 265 263 261 258 256 254 253 251 249 247 245 243 242 241 240 239 238 238 237